TimeEDT,TemperatureF,Dew PointF,Humidity,Sea Level PressureIn,VisibilityMPH,Wind Direction,Wind SpeedMPH,Gust SpeedMPH,PrecipitationIn,Events,Conditions,WindDirDegrees,DateUTC
12:05 AM,64.4,62.6,94,29.49,2.0,WSW,19.6,31.1,0.11,Rain,Rain,240,2013-11-01 04:05:00
12:14 AM,64.4,62.6,94,29.50,6.0,SW,21.9,35.7,0.13,Rain,Rain,230,2013-11-01 04:14:00
12:21 AM,60.8,57.2,88,29.54,2.5,WNW,25.3,43.7,0.21,Rain,Rain,290,2013-11-01 04:21:00
12:29 AM,57.2,53.6,88,29.54,1.5,West,15.0,41.4,0.27,Rain,Heavy Rain,270,2013-11-01 04:29:00
12:32 AM,57.2,53.6,88,29.54,3.0,WNW,18.4,29.9,0.27,Rain,Rain,290,2013-11-01 04:32:00
12:53 AM,57.0,55.0,93,29.55,9.0,West,9.2,-,0.29,Rain,Light Rain,260,2013-11-01 04:53:00
1:53 AM,57.0,54.0,89,29.55,10.0,SSW,8.1,-,0.01,,Mostly Cloudy,210,2013-11-01 05:53:00
2:44 AM,57.2,53.6,88,29.59,10.0,WSW,11.5,23.0,N/A,,Mostly Cloudy,250,2013-11-01 06:44:00
2:53 AM,57.0,53.1,87,29.57,10.0,WSW,9.2,18.4,N/A,,Overcast,250,2013-11-01 06:53:00
3:53 AM,57.0,53.1,87,29.61,10.0,West,10.4,18.4,N/A,,Overcast,270,2013-11-01 07:53:00
4:53 AM,55.9,51.1,84,29.64,10.0,WSW,11.5,19.6,N/A,,Mostly Cloudy,250,2013-11-01 08:53:00
5:45 AM,53.6,48.2,82,29.68,10.0,West,5.8,-,N/A,,Scattered Clouds,260,2013-11-01 09:45:00
5:53 AM,53.1,48.9,86,29.67,10.0,WSW,6.9,-,N/A,,Partly Cloudy,250,2013-11-01 09:53:00
6:53 AM,50.0,48.0,93,29.70,10.0,SW,6.9,-,N/A,,Mostly Cloudy,220,2013-11-01 10:53:00
7:06 AM,50.0,48.2,94,29.72,10.0,SW,8.1,-,N/A,,Scattered Clouds,230,2013-11-01 11:06:00
7:17 AM,50.0,48.2,94,29.72,10.0,WSW,5.8,-,N/A,,Mostly Cloudy,240,2013-11-01 11:17:00
7:53 AM,51.1,48.0,89,29.72,10.0,SW,9.2,-,N/A,,Overcast,220,2013-11-01 11:53:00
8:11 AM,50.0,46.4,87,29.74,10.0,SW,8.1,-,N/A,,Scattered Clouds,230,2013-11-01 12:11:00
8:53 AM,50.0,46.9,89,29.73,10.0,SW,4.6,-,N/A,,Partly Cloudy,220,2013-11-01 12:53:00
9:10 AM,51.8,48.2,88,29.75,10.0,SW,5.8,-,N/A,,Mostly Cloudy,220,2013-11-01 13:10:00
9:53 AM,53.1,48.9,86,29.75,10.0,SW,12.7,18.4,N/A,,Mostly Cloudy,220,2013-11-01 13:53:00
10:04 AM,53.6,50.0,88,29.77,10.0,SW,12.7,-,N/A,,Scattered Clouds,230,2013-11-01 14:04:00
10:53 AM,55.9,48.9,77,29.75,10.0,SW,11.5,-,N/A,,Clear,230,2013-11-01 14:53:00
11:53 AM,59.0,48.9,69,29.74,10.0,SW,9.2,-,N/A,,Clear,230,2013-11-01 15:53:00
12:53 PM,62.1,48.0,60,29.73,10.0,WSW,13.8,20.7,N/A,,Partly Cloudy,240,2013-11-01 16:53:00
1:53 PM,61.0,46.0,58,29.71,10.0,WSW,10.4,19.6,N/A,,Scattered Clouds,250,2013-11-01 17:53:00
2:53 PM,64.0,46.0,52,29.69,10.0,SW,15.0,-,N/A,,Scattered Clouds,220,2013-11-01 18:53:00
3:53 PM,64.9,45.0,48,29.68,10.0,SW,13.8,-,N/A,,Mostly Cloudy,220,2013-11-01 19:53:00
4:53 PM,63.0,45.0,52,29.68,10.0,SW,6.9,-,N/A,,Mostly Cloudy,230,2013-11-01 20:53:00
5:53 PM,61.0,44.1,54,29.69,10.0,SW,8.1,-,N/A,,Mostly Cloudy,230,2013-11-01 21:53:00
6:53 PM,59.0,45.0,60,29.70,10.0,SW,3.5,-,N/A,,Overcast,230,2013-11-01 22:53:00
7:53 PM,55.0,46.0,72,29.71,10.0,Calm,Calm,-,N/A,,Overcast,0,2013-11-01 23:53:00
8:53 PM,55.0,46.0,72,29.73,10.0,WSW,4.6,-,N/A,,Mostly Cloudy,240,2013-11-02 00:53:00
9:53 PM,57.0,44.1,62,29.75,10.0,WNW,6.9,-,N/A,,Mostly Cloudy,290,2013-11-02 01:53:00
10:53 PM,55.0,44.1,67,29.77,10.0,West,5.8,-,N/A,,Clear,280,2013-11-02 02:53:00
11:53 PM,50.0,44.1,80,29.78,10.0,WSW,3.5,-,N/A,,Clear,250,2013-11-02 03:53:00